Flag for Argentina Weather past 2 weeks in Río Gallegos, Santa Cruz, Argentina

Now
64 °F

Passing clouds.


Feels Like: 64 °F
Forecast: 52 / 65 °F
Wind: 2 mph from Southeast

Location: Rio Gallegos Aerodrome

Current Time: Jan 30, 2015 at 9:54:58 PM

Latest Report: Jan 30, 2015 at 9:00 PM


Visibility: N/A

Pressure: 29.59 "Hg

Humidity: 56%

Dew point: 48 °F

Location of Río GallegosLocation

Historic Weather in Río Gallegos — Graph

°F

Río Gallegos temperature yesterday

Maximum temperature yesterday: 73 °F (at 5:00 PM)
Minimum temperature yesterday: 50 °F (at 6:00 AM)
Average temperature yesterday: 60 °F

Past Weeks' High & Low Weather Summary

 TemperatureHumidityPressure
High86 °F (Jan 22, 3:00 PM)94% (Jan 27, 4:00 AM)30.12 "Hg (Jan 27, 4:00 AM)
Low37 °F (Jan 16, 5:00 AM)11% (Jan 17, 6:00 PM)29.45 "Hg (Jan 26, 2:00 PM)
Average57 °F53%29.78 "Hg
* Reported Jan 15 8:00 PM — Jan 30 8:00 PM, Río Gallegos, Weather by CustomWeather, © 2014

Note: Actual official high and low records may vary slightly from our data, if they occured in-between our weather recording intervals... More about our weather records

Advertising

Río Gallegos weather history for previous 24 hours

 ConditionsComfort  
Time TempWeatherWind HumidityBarometerVisibility
8:00 PM
Jan 30
68 °FScattered clouds.7 mph40%29.59 "HgN/A
7:00 PM68 °FScattered clouds.10 mph38%29.56 "HgN/A
6:00 PM72 °FScattered clouds.9 mph31%29.53 "HgN/A
5:00 PM70 °FScattered clouds.13 mph40%29.53 "HgN/A
4:00 PM70 °FScattered clouds.17 mph35%29.53 "HgN/A
3:00 PM72 °FScattered clouds.15 mph31%29.56 "HgN/A
2:00 PM72 °FPassing clouds.13 mph38%29.56 "HgN/A
1:00 PM72 °FSunny.No wind38%29.59 "Hg10 mi
12:00 PM70 °FSunny.No wind43%29.59 "Hg10 mi
11:00 AM66 °FSunny.No wind49%29.59 "Hg10 mi
10:00 AM63 °FScattered showers. Partly sunny.No wind56%29.59 "HgN/A
9:00 AM57 °FSunny.No wind82%29.62 "Hg10 mi
8:00 AM54 °FPartly sunny.No wind88%29.62 "HgN/A
7:00 AM54 °FPartly sunny.No wind88%29.59 "HgN/A
6:00 AM54 °FSunny.1 mph88%29.59 "Hg10 mi
5:00 AM54 °FClear.No wind88%29.59 "Hg10 mi
4:00 AM55 °FClear.No wind88%29.59 "Hg10 mi
3:00 AM55 °FClear.No wind82%29.59 "Hg10 mi
2:00 AM55 °FClear.No wind88%29.62 "Hg10 mi
1:00 AM55 °FClear.8 mph82%29.62 "Hg10 mi
12:00 AM59 °FClear.No wind77%29.62 "Hg10 mi
11:00 PM
Jan 29
63 °FClear.2 mph64%29.62 "Hg10 mi
10:00 PM63 °FClear.12 mph64%29.62 "Hg10 mi
9:00 PM63 °FClear.12 mph52%29.65 "Hg10 mi
Weather by CustomWeather, © 2014

See weather overviewHow to use our weather pages